EW5609 Weather Reports


time (UTC)temp
C
wind
direction
speed
KPH
gust
KPH
rain 1hr
cm
rain 24hr
cm
rain mn
cm
humidity
%
barometer
mb
20260507051029 7 0 0.0 0.0 0.00 0.81 0.00 93 1011.0
20260507050251 7 0 0.0 0.0 0.00 0.81 0.00 93 1011.1
20260507045754 7 0 0.0 0.0 0.00 0.81 0.00 93 1011.0
20260507045250 7 0 0.0 0.0 0.00 0.81 0.00 93 1011.0
20260507044747 7 0 0.0 0.0 0.00 0.81 0.00 93 1011.0
20260507044246 7 0 0.0 0.0 0.00 0.81 0.00 93 1011.2
20260507043743 7 0 0.0 0.0 0.00 0.81 0.00 93 1011.2
20260507043242 7 0 0.0 0.0 0.00 0.81 0.00 93 1011.1
20260507042741 7 0 0.0 0.0 0.00 0.81 0.00 93 1011.1
20260507042233 7 0 0.0 0.0 0.00 0.81 0.00 93 1011.1
20260507041735 7 0 0.0 0.0 0.00 0.81 0.00 93 1011.0
20260507041229 7 0 0.0 0.0 0.00 0.81 0.00 92 1010.8
20260507040950 7 0 0.0 0.0 0.00 0.81 0.00 92 1010.8
20260507040203 7 0 0.0 0.0 0.00 0.81 0.00 92 1010.6
20260507035703 7 0 0.0 0.0 0.00 0.81 0.81 92 1010.8
20260507035201 7 0 0.0 0.0 0.00 0.81 0.81 92 1011.0
20260507034700 7 0 0.0 0.0 0.00 0.81 0.81 92 1011.0
20260507034152 7 0 0.0 0.0 0.00 0.81 0.81 92 1010.6
20260507033652 7 0 0.0 0.0 0.00 0.81 0.81 92 1010.4
20260507033411 7 0 0.0 0.0 0.00 0.81 0.81 92 1010.8
20260507032858 7 0 0.0 0.0 0.00 0.81 0.81 92 1010.3
20260507032736 7 0 0.0 0.0 0.00 0.81 0.81 92 1010.4
20260507031643 7 0 0.0 0.0 0.00 0.81 0.81 92 1010.8
20260507031141 7 0 0.0 0.0 0.00 0.81 0.81 92 1011.0
20260507030640 7 0 0.0 0.0 0.00 0.81 0.81 92 1010.9
20260507030133 7 0 0.0 0.0 0.00 0.81 0.81 92 1010.8
20260507025904 7 0 0.0 0.0 0.00 0.81 0.81 92 1010.6
20260507025613 7 0 0.0 0.0 0.00 0.81 0.81 92 1011.0
20260507024630 7 0 0.0 0.0 0.00 0.81 0.81 92 1011.3
20260507024101 7 0 0.0 0.0 0.00 0.81 0.81 92 1011.2
20260507023534 7 0 0.0 0.0 0.00 0.81 0.81 92 1011.0
20260507023005 7 0 0.0 0.0 0.00 0.81 0.81 92 1011.2
20260507022437 7 0 0.0 0.0 0.00 0.81 0.81 92 1010.9
20260507021911 7 0 0.0 0.0 0.00 0.81 0.81 92 1010.9
20260507021408 7 0 0.0 0.0 0.00 0.81 0.81 92 1011.4
20260507020907 7 0 0.0 0.0 0.00 0.81 0.81 92 1011.5
20260507020402 7 0 0.0 0.0 0.00 0.81 0.81 92 1011.2
20260507015903 7 0 0.0 0.0 0.00 0.81 0.81 91 1011.5
20260507015625 7 0 0.0 0.0 0.00 0.81 0.81 91 1011.1
20260507014858 7 0 0.0 0.0 0.00 0.81 0.81 91 1011.3
20260507014400 7 0 0.0 0.0 0.00 0.81 0.81 91 1011.4
20260507013852 7 0 0.0 0.0 0.00 0.81 0.81 91 1011.3
20260507013619 7 0 0.0 0.0 0.00 0.81 0.81 91 1011.2
20260507013114 7 0 0.0 0.0 0.00 0.81 0.81 91 1011.3
20260507012353 7 0 0.0 0.0 0.00 0.81 0.81 91 1011.2
20260507011850 7 0 0.0 0.0 0.00 0.81 0.81 91 1011.3
20260507011351 7 0 0.0 0.0 0.00 0.81 0.81 91 1011.2
20260507011318 7 0 0.0 0.0 0.00 0.81 0.81 91 1011.2
20260507010258 7 0 0.0 0.0 0.00 0.81 0.81 91 1011.2
20260507005730 7 0 0.0 0.0 0.00 0.81 0.81 91 1011.0
20260507005429 7 0 0.0 0.0 0.00 0.81 0.81 91 1011.0
20260507004701 7 0 0.0 0.0 0.00 0.81 0.81 91 1011.0
20260507004202 7 0 0.0 0.0 0.00 0.81 0.81 91 1010.9
20260507003701 7 0 0.0 0.0 0.00 0.81 0.81 91 1010.9
20260507003158 7 0 0.0 0.0 0.00 0.81 0.81 91 1010.8
20260507002658 7 0 0.0 0.0 0.00 0.81 0.81 91 1010.9
20260507002159 7 0 0.0 0.0 0.00 0.81 0.81 91 1010.8
20260507001658 7 0 0.0 0.0 0.00 0.81 0.81 91 1010.8
20260507001158 7 0 0.0 0.0 0.00 0.81 0.81 91 1010.6
20260507000650 7 0 0.0 0.0 0.00 0.81 0.81 91 1010.6
20260507000149 7 0 0.0 0.0 0.00 0.81 0.81 91 1010.3
20260506235647 7 0 0.0 0.0 0.00 0.81 0.81 91 1010.4
20260506235409 7 0 0.0 0.0 0.00 0.81 0.81 91 1010.6
20260506234620 7 0 0.0 0.0 0.00 0.81 0.81 91 1010.3
20260506234324 7 0 0.0 0.0 0.00 0.81 0.81 91 1010.3
20260506233603 7 0 0.0 0.0 0.00 0.81 0.81 91 1010.3
20260506233311 7 0 0.0 0.0 0.00 0.81 0.81 91 1010.3
20260506232549 7 0 0.0 0.0 0.00 0.81 0.81 91 1010.2
20260506232020 7 0 0.0 0.0 0.00 0.81 0.81 91 1010.3
20260506231525 7 0 0.0 0.0 0.00 0.81 0.81 92 1010.2
20260506230952 7 291 0.0 0.0 0.00 0.81 0.81 92 1010.3
20260506230434 7 306 0.0 1.6 0.00 0.81 0.81 92 1010.1
20260506225935 7 288 0.0 1.6 0.00 0.81 0.81 92 1010.1
20260506225420 7 0 0.0 1.6 0.00 0.81 0.81 92 1010.0
20260506224919 8 288 0.0 1.6 0.00 0.81 0.81 92 1010.0
20260506224405 8 0 0.0 0.0 0.00 0.81 0.81 92 1010.0
20260506223904 8 288 0.0 0.0 0.00 0.81 0.81 92 1010.0
20260506223405 8 0 0.0 0.0 0.00 0.81 0.81 92 1009.8
20260506222904 8 269 0.0 0.0 0.00 0.81 0.81 92 1009.9
20260506222404 8 281 0.0 0.0 0.00 0.81 0.81 92 1009.7
20260506222130 8 0 0.0 0.0 0.00 0.81 0.81 92 1009.5
20260506221404 8 0 0.0 8.0 0.00 0.81 0.81 92 1009.6
20260506220905 8 325 0.0 8.0 0.00 0.81 0.81 92 1009.6
20260506220404 8 288 0.0 0.0 0.00 0.81 0.81 93 1009.5
20260506215903 8 0 0.0 6.4 0.00 0.81 0.81 93 1009.4
20260506215402 8 292 0.0 6.4 0.00 0.81 0.81 93 1009.5
20260506214903 8 0 1.6 17.7 0.00 0.81 0.81 93 1009.5
20260506214400 8 0 1.6 17.7 0.00 0.81 0.81 93 1009.6
20260506213901 8 283 0.0 8.0 0.00 0.81 0.81 93 1009.4
20260506213359 8 0 0.0 12.9 0.00 0.81 0.81 93 1009.5
20260506212902 8 0 1.6 14.5 0.00 0.81 0.81 93 1009.4
20260506212333 8 0 0.0 14.5 0.00 0.81 0.81 93 1009.3
20260506211814 8 0 0.0 0.0 0.00 0.81 0.81 93 1009.1
20260506211311 8 0 0.0 1.6 0.00 0.81 0.81 93 1009.0
20260506210758 8 280 0.0 1.6 0.00 0.81 0.81 93 1009.0
20260506210255 8 284 0.0 0.0 0.00 0.81 0.81 94 1008.9
20260506205754 8 0 0.0 0.0 0.00 0.81 0.81 94 1008.8
20260506205255 8 0 0.0 0.0 0.00 0.81 0.81 93 1008.6
20260506205022 8 293 0.0 1.6 0.00 0.81 0.81 94 1008.7
20260506204253 8 0 0.0 1.6 0.00 0.81 0.81 93 1008.5
20260506203753 8 0 0.0 12.9 0.00 0.81 0.81 94 1008.5
20260506203732 8 0 0.0 12.9 0.00 0.81 0.81 94 1008.5
20260506202753 8 0 0.0 6.4 0.00 0.81 0.81 94 1008.4
20260506202252 8 284 1.6 12.9 0.03 0.81 0.81 93 1008.3
20260506201750 8 0 0.0 12.9 0.03 0.81 0.81 94 1008.1
20260506201247 8 0 0.0 0.0 0.05 0.81 0.81 94 1007.9
20260506201014 8 0 0.0 0.0 0.05 0.81 0.81 94 1007.7
20260506200712 9 0 0.0 1.6 0.05 0.81 0.81 94 1007.7
20260506195724 9 0 0.0 1.6 0.05 0.81 0.81 94 1007.7
20260506195222 9 304 0.0 0.0 0.05 0.81 0.81 94 1007.8
20260506194721 9 0 0.0 3.2 0.05 0.81 0.81 94 1007.8
20260506194453 8 0 0.0 3.2 0.05 0.84 0.81 94 1007.8
20260506193717 8 0 0.0 0.0 0.05 0.86 0.81 94 1007.8
20260506193217 8 0 0.0 1.6 0.05 0.86 0.81 94 1007.8
20260506192940 8 0 0.0 1.6 0.05 0.86 0.81 93 1007.9
20260506192212 9 292 0.0 0.0 0.03 0.84 0.79 93 1007.8
20260506191714 9 0 0.0 0.0 0.05 0.84 0.79 93 1007.7
20260506191435 9 0 0.0 1.6 0.03 0.81 0.76 93 1007.6
20260506190707 9 276 0.0 1.6 0.03 0.81 0.76 93 1007.5
20260506190217 9 276 0.0 0.0 0.03 0.81 0.76 93 1007.3
20260506190209 9 276 0.0 0.0 0.03 0.81 0.76 93 1007.4
20260506185403 9 276 0.0 0.0 0.03 0.81 0.76 93 1007.1
20260506184615 9 276 0.0 0.0 0.03 0.81 0.76 93 1007.2
20260506184047 9 261 0.0 0.0 0.03 0.81 0.76 93 1007.1
20260506183521 9 281 0.0 0.0 0.03 0.81 0.76 93 1007.1
20260506182956 9 265 0.0 0.0 0.03 0.81 0.76 93 1007.1
20260506182429 9 275 0.0 0.0 0.03 0.81 0.76 93 1007.1
20260506181900 9 272 0.0 1.6 0.00 0.79 0.74 93 1006.9
20260506181333 9 248 0.0 1.6 0.00 0.79 0.74 93 1006.8
20260506180810 10 280 0.0 0.0 0.00 0.79 0.74 93 1006.8
20260506180508 10 267 0.0 0.0 0.00 0.79 0.74 93 1006.6
20260506175714 10 267 0.0 0.0 0.00 0.79 0.74 93 1006.6
20260506175335 10 0 0.0 0.0 0.00 0.79 0.74 93 1006.5
20260506175219 10 286 0.0 0.0 0.00 0.79 0.74 93 1006.6
20260506174053 10 0 0.0 1.6 0.03 0.79 0.74 93 1006.3
20260506173527 10 0 0.0 0.0 0.03 0.79 0.74 93 1006.3
20260506173004 11 277 0.0 0.0 0.03 0.79 0.74 93 1006.2
20260506172503 11 286 0.0 0.0 0.03 0.79 0.74 93 1006.1
20260506172004 11 311 0.0 0.0 0.03 0.79 0.74 93 1006.0
20260506171459 11 19 0.0 0.0 0.03 0.79 0.74 93 1006.0
20260506171000 12 0 0.0 6.4 0.03 0.79 0.74 93 1005.9
20260506170459 12 0 0.0 6.4 0.03 0.79 0.74 93 1005.8
20260506170217 12 0 0.0 6.4 0.03 0.79 0.74 93 1005.6
20260506165453 13 286 0.0 6.4 0.03 0.79 0.74 93 1005.7
20260506164950 14 0 0.0 0.0 0.03 0.79 0.74 93 1005.5
20260506164450 15 338 0.0 0.0 0.03 0.79 0.74 94 1005.6
20260506164211 14 284 0.0 0.0 0.03 0.76 0.71 94 1005.6
20260506163447 14 284 0.0 0.0 0.03 0.76 0.71 94 1005.5
20260506162949 14 284 0.0 0.0 0.03 0.76 0.71 94 1005.4
20260506162449 14 298 0.0 0.0 0.03 0.76 0.71 94 1005.5
20260506161941 15 0 0.0 0.0 0.03 0.76 0.71 94 1005.4
20260506161440 14 0 0.0 0.0 0.03 0.76 0.71 94 1005.4
20260506160937 14 273 0.0 0.0 0.03 0.76 0.71 94 1005.3
20260506160438 14 273 0.0 0.0 0.03 0.76 0.71 94 1005.3
20260506155924 14 273 0.0 0.0 0.05 0.76 0.71 94 1005.5
20260506155423 14 273 0.0 0.0 0.08 0.76 0.71 94 1005.5
20260506154920 14 275 0.0 0.0 0.08 0.76 0.71 94 1005.6
20260506154417 14 275 0.0 0.0 0.08 0.76 0.71 94 1005.6
20260506153917 14 275 0.0 0.0 0.05 0.74 0.69 94 1005.6
20260506153414 14 277 0.0 0.0 0.08 0.74 0.69 94 1005.5
20260506152915 14 155 0.0 0.0 0.08 0.74 0.69 94 1005.5
20260506152650 14 244 0.0 0.0 0.08 0.74 0.69 94 1005.5
20260506151908 14 0 0.0 0.0 0.08 0.74 0.69 94 1005.5
20260506151406 14 236 0.0 0.0 0.10 0.74 0.69 94 1005.5
20260506150904 14 236 0.0 0.0 0.10 0.74 0.69 94 1005.8
20260506150403 14 136 0.0 0.0 0.08 0.71 0.69 94 1005.7
20260506145904 14 109 0.0 0.0 0.08 0.71 0.66 94 1005.6
20260506145402 14 292 0.0 0.0 0.05 0.69 0.66 94 1005.5
20260506145121 14 293 0.0 0.0 0.08 0.69 0.64 94 1005.5
20260506144345 14 0 0.0 0.0 0.08 0.69 0.64 94 1005.4
20260506143846 13 294 0.0 0.0 0.05 0.66 0.64 94 1005.4
20260506143338 13 294 0.0 0.0 0.08 0.66 0.61 94 1005.3
20260506143059 13 123 0.0 0.0 0.08 0.66 0.61 94 1005.3
20260506142337 13 76 0.0 0.0 0.10 0.66 0.61 94 1005.5
20260506141833 13 76 0.0 0.0 0.10 0.66 0.61 94 1005.6
20260506141331 13 76 0.0 0.0 0.10 0.64 0.58 94 1005.5
20260506140828 13 76 0.0 0.0 0.13 0.64 0.58 94 1005.5
20260506140327 13 76 0.0 0.0 0.15 0.64 0.58 94 1005.6
20260506135827 13 76 0.0 0.0 0.18 0.64 0.58 94 1005.7
20260506135318 13 76 0.0 0.0 0.20 0.64 0.58 94 1005.7
20260506134818 13 76 0.0 0.0 0.20 0.61 0.56 94 1005.7
20260506134317 12 76 0.0 0.0 0.23 0.61 0.56 94 1005.8
20260506133815 12 76 0.0 0.0 0.25 0.58 0.56 94 1005.8
20260506133302 12 77 0.0 0.0 0.28 0.58 0.53 94 1005.8
20260506132759 12 233 0.0 0.0 0.30 0.58 0.53 94 1005.9
20260506132257 12 233 0.0 0.0 0.33 0.56 0.51 93 1006.0
20260506132012 12 233 0.0 0.0 0.36 0.56 0.51 94 1006.2
20260506131254 12 233 0.0 0.0 0.33 0.53 0.48 94 1006.3
20260506130748 12 233 0.0 0.0 0.33 0.51 0.46 93 1006.4
20260506130246 12 234 0.0 0.0 0.30 0.51 0.43 93 1006.5
20260506125744 12 234 0.0 0.0 0.28 0.48 0.41 93 1006.6
20260506125734 12 234 0.0 0.0 0.25 0.46 0.38 93 1006.6
20260506124739 11 234 0.0 0.0 0.23 0.43 0.36 93 1006.5
20260506124237 11 155 0.0 0.0 0.18 0.38 0.30 93 1006.5
20260506123734 11 154 0.0 0.0 0.18 0.36 0.28 93 1006.5
20260506123235 11 153 0.0 0.0 0.15 0.33 0.25 93 1006.3
20260506122727 11 153 0.0 0.0 0.13 0.30 0.23 93 1006.2
20260506122228 11 153 0.0 0.0 0.10 0.25 0.20 93 1006.3
20260506121723 11 153 0.0 0.0 0.08 0.23 0.15 93 1006.3
20260506121444 11 153 0.0 0.0 0.08 0.23 0.15 93 1006.2
20260506120932 11 153 0.0 0.0 0.05 0.20 0.13 93 1006.1
20260506120210 11 153 0.0 0.0 0.05 0.20 0.13 93 1006.1
20260506115703 11 153 0.0 0.0 0.05 0.20 0.13 93 1006.0
20260506115204 11 182 0.0 0.0 0.05 0.20 0.13 93 1006.0
20260506114627 11 196 0.0 0.0 0.05 0.20 0.13 93 1006.2
20260506114057 11 205 0.0 0.0 0.03 0.18 0.10 92 1006.5
20260506113534 11 205 0.0 0.0 0.03 0.18 0.10 92 1006.7
20260506113006 11 205 0.0 0.0 0.03 0.18 0.10 92 1006.7
20260506112438 11 205 0.0 0.0 0.00 0.15 0.08 92 1006.7
20260506111913 11 205 0.0 0.0 0.00 0.18 0.08 92 1006.6
20260506111349 11 205 0.0 0.0 0.03 0.18 0.08 92 1006.6
20260506111049 11 205 0.0 0.0 0.03 0.18 0.08 92 1006.7
20260506110256 11 205 0.0 0.0 0.03 0.18 0.08 92 1006.7
20260506105739 11 205 0.0 0.0 0.03 0.18 0.08 92 1006.5
20260506105238 11 205 0.0 0.0 0.03 0.18 0.08 92 1006.5
20260506104931 11 205 0.0 0.0 0.03 0.18 0.08 92 1006.5
20260506104634 11 205 0.0 0.0 0.03 0.18 0.08 91 1006.4
20260506103616 11 205 0.0 0.0 0.03 0.18 0.08 91 1006.4
20260506103047 11 205 0.0 0.0 0.03 0.18 0.08 91 1006.5
20260506102520 11 205 0.0 0.0 0.03 0.18 0.08 91 1006.5
20260506102430 11 205 0.0 0.0 0.03 0.18 0.08 91 1006.5
20260506101425 11 205 0.0 0.0 0.00 0.15 0.05 91 1006.3
20260506100900 11 205 0.0 0.0 0.00 0.15 0.05 91 1006.2
20260506100333 11 205 0.0 0.0 0.00 0.15 0.05 91 1006.2
20260506095805 11 205 0.0 0.0 0.03 0.15 0.05 91 1006.2
20260506095238 11 205 0.0 0.0 0.03 0.15 0.05 90 1006.1
20260506094739 11 205 0.0 0.0 0.03 0.15 0.05 90 1006.2
20260506094240 11 205 0.0 0.0 0.03 0.15 0.05 90 1006.2
20260506093737 11 205 0.0 0.0 0.03 0.15 0.05 90 1006.2
20260506093235 11 205 0.0 0.0 0.03 0.15 0.05 90 1006.2
20260506092735 11 205 0.0 0.0 0.05 0.15 0.05 90 1006.3
20260506092234 11 205 0.0 0.0 0.05 0.15 0.05 90 1006.3
20260506091727 11 205 0.0 0.0 0.05 0.15 0.05 90 1006.3
20260506091226 11 205 0.0 0.0 0.05 0.15 0.05 90 1006.3
20260506090723 11 205 0.0 0.0 0.05 0.15 0.05 90 1006.4
20260506090441 11 205 0.0 0.0 0.03 0.13 0.03 90 1006.5
20260506085720 11 205 0.0 0.0 0.03 0.13 0.03 90 1006.5
20260506085217 11 205 0.0 0.0 0.03 0.13 0.03 89 1006.6
20260506084717 11 205 0.0 0.0 0.03 0.13 0.03 89 1006.6
20260506084442 11 205 0.0 0.0 0.03 0.13 0.03 89 1006.8
20260506083934 11 205 0.0 0.0 0.03 0.13 0.03 89 1006.8
20260506083437 11 205 0.0 0.0 0.03 0.13 0.03 89 1006.9
20260506082914 11 205 0.0 0.0 0.00 0.10 0.00 89 1007.1
20260506082419 11 205 0.0 0.0 0.00 0.10 0.00 89 1007.1
20260506081649 11 205 0.0 0.0 0.00 0.10 0.00 88 1007.1
20260506081147 11 205 0.0 0.0 0.00 0.10 0.00 89 1007.1
20260506080911 11 205 0.0 0.0 0.00 0.10 0.00 88 1006.9
20260506080143 11 205 0.0 0.0 0.00 0.10 0.00 88 1006.8
20260506073135 11 205 0.0 0.0 0.00 0.10 0.00 88 1006.7
20260506072632 11 205 0.0 0.0 0.00 0.10 0.00 87 1007.1
20260506072133 11 205 0.0 0.0 0.00 0.10 0.00 87 1006.9
20260506071633 11 205 0.0 0.0 0.00 0.10 0.00 87 1006.8
20260506071128 11 205 0.0 0.0 0.00 0.10 0.00 87 1006.8
20260506070626 11 205 0.0 0.0 0.00 0.10 0.00 87 1006.8
20260506070123 11 205 0.0 0.0 0.00 0.10 0.00 87 1006.8
20260506062024 12 205 0.0 0.0 0.00 0.10 0.00 87 1007.3
20260506061522 12 205 0.0 0.0 0.00 0.10 0.00 87 1007.5
20260506061021 12 205 0.0 0.0 0.00 0.10 0.00 87 1007.6
20260506060520 12 205 0.0 0.0 0.00 0.10 0.00 87 1007.6